DELTA 1 DEB, 3127

Orbit data source: Space-Track

DELTA 1 DEB, 3127 is space debris in LEO originally from a launch on Thu, 11 Jan 1968 UTC launched from the Air Force Western Test Range (AFWTR). Debris objects in space refer to the collection of defunct objects orbiting the Earth. Examples of debris include non-operational satellites, rocket bodies, and fragments generated from explosions, collisions, or faulty payload assembly.

Loading next visibility...
Identifier
3127, 1968-002D
Orbit
LEO
Last TLE update
3 hours ago
Origin
Manufacturer
Unknown
Mission
Spacecraft
Bus & Motor
Unknown
Mass
Unknown
Launch date (UTC)
1968-01-11 (57 years ago)
Launch vehicle
Unknown
Launch site
Air Force Western Test Range (AFWTR)
Object type
Payload
Rocket body
Debris
Shape & HBR
Unknown
Radar Cross Section
Small (<0.1 m²)

Expand to show TLE details & history

TLE from 3 hours ago
0 DELTA 1 DEB
1  3127U 68002D   25163.51392545 -.00000048  00000-0  82957-4 0  9998
2  3127 105.3332 172.4606 0321494 206.6733 308.5689 12.84869246691935
Epoch: 2025-06-12T12:20Z
TLE epoch observation values (Epoch: 2025-06-12T12:20:03.158Z)
Latitude
26.6853°
Longitude
-85.7527°
Altitude
1,175.44 km
Speed
7.338 km/s
True Right ascension
00h 01m 21s
True Declination
26° 33' 19"
Sunlit
Object was in daylight at epoch
Visualization orbit readout
Latitude
-10.84351°
Longitude
89.5251°
Altitude
1,519.706 km
Speed
7.015 km/s
Apparent Right ascension
12h 26m 11s
Apparent Declination
-24° 17' 58"
Sunlit
Object is in daylight
Visualization observer readout
Local Sidereal Time
01:36:05
Azimuth
48.489° ENE
Elevation
-68.564°
Doppler factor
1
Orbital elements
Apogee altitude
1,567.177 km
Perigee altitude
1,072.216 km
Semi-major axis
7,697.833 km
Eccentricity
0.03215
Inclination
105.3332°
RAAN
172.4606°
Arg. of periapsis
206.6733°
True anomaly
Unknown
Mean anomaly
308.5689°
Eccentric anomaly
Unknown
Mean motion
3.21359 °/min
Orbital period
112.02 mins
BSTAR
0.000082957
Loading maneuver chart data...
Loading SW <> Apogee altitude chart data...
Loading historical data...
Loading historical data...
Loading historical data...
Loading historical data...
Loading historical data...
Loading historical data...
Loading historical data...

DELTA 1 DEB Visibility forecast

Observer location: undefined°, undefined°

Span
Click to sort rows by Start time (UTC) header in descending order
Start Az.
Max El. time (UTC)
Max El. Az.
Max El.
End time (UTC)
End Az.
8 mins2025-06-12 15:51:46.178Z352.111° N2025-06-12 15:55:46.178Z318.848° NNW17.52°2025-06-12 15:59:46.178Z281.962° WNW
13 mins2025-06-12 22:53:46.178Z111.438° ESE2025-06-12 22:59:46.178Z57.558° ENE31.577°2025-06-12 23:06:46.178Z354.89° N
15 mins2025-06-13 00:41:46.178Z176.284° S2025-06-13 00:48:46.178Z245.069° WSW40.691°2025-06-13 00:56:46.178Z329.079° NNW
10 mins2025-06-13 12:29:46.178Z52.308° ENE2025-06-13 12:34:46.178Z100.448° ESE21.739°2025-06-13 12:39:46.178Z148.795° SSE
12 mins2025-06-13 14:18:46.178Z14.449° NNE2025-06-13 14:24:46.178Z299.318° NW42.085°2025-06-13 14:30:46.178Z219.442° SW
|